Location: L�Ave Maria
(50.7161°N, 1.5911°E)
Time: 22:47:54
(UTC+00:00)

Cosmos 864 Rocket - Pass Details

Date: 10 July 2020
Orbit: 953 x 991 km, 82.9° (Epoch: 14 August)

Event Time Altitude Azimuth Distance (km) Brightness Sun altitude
Exits shadow 23:08:26 23° 184° (S) 1,936 5.5 -16.4°
Maximum altitude 23:12:31 85° 98° (E) 995 4.5 -16.5°
Drops below altitude 10° 23:18:53 10° 11° (N) 2,762 8.0 -16.7°
Sets 23:21:25 0° 11° (N) 3,717 8.9 -16.7°
